College Park, MD

11:25 AM EDT on June 25, 2017 (GMT -0400)
College Park

Weather History for KCGS - February, 2013

Change the Weather History Date:

Wednesday, February 6, 2013

  Actual Average Record
Temperature  
Mean Temperature 38 °F -  
Max Temperature 47 °F 43 °F 75 °F (1991)
Min Temperature 28 °F 24 °F 1 °F (1966)
Degree Days  
Heating Degree Days 27    
Moisture  
Dew Point 29 °F    
Average Humidity 71    
Maximum Humidity 100    
Minimum Humidity 44    
Precipitation  
Precipitation 0.00 in - - ()
Sea Level Pressure  
Sea Level Pressure 30.16 in    
Wind  
Wind Speed 3 mph (NW)    
Max Wind Speed 15 mph    
Max Gust Speed 23 mph    
Visibility 9 miles    
Events      
Averages and records for this station are not official NWS values.
T = Trace of Precipitation, MM = Missing Value Source: NWS Daily Summary

Daily Weather History Graph

Daily Weather History Graph

Search for Another Location

Airport or City:

Trip Planner

Search our weather history database for the weather conditions in past years. The results will help you decide how hot, cold, wet, or windy it might be!

Date:

Astronomy

Feb. 06, 2013 Rise Set
Actual Time 7:09 AM EST 5:35 PM EST
Civil Twilight 6:41 AM EST 6:02 PM EST
Nautical Twilight 6:09 AM EST 6:34 PM EST
Astronomical Twilight 5:38 AM EST 7:05 PM EST
Moon 3:49 AM EST (2/6) 1:52 PM EST (2/6)
Length of Visible Light 11h 21m
Length of Day
10h 26m
Waning Crescent, 17% of the Moon is Illuminated
Feb 6
Waning Crescent
Feb 10
New
Feb 17
First Quarter
Feb 25
Full
Mar 4
Last Quarter

Hourly Weather History & Observations

Time (EST) Temp. Windchill Dew Point Humidity Pressure Visibility Wind Dir Wind Speed Gust Speed Precip Events Conditions
12:15 AM 36.7 °F - 31.3 °F 81% 29.96 in 10.0 mi Calm Calm - N/A   Overcast
12:35 AM 35.6 °F - 31.6 °F 85% 29.96 in 10.0 mi Calm Calm - N/A   Overcast
12:55 AM 35.6 °F - 32.0 °F 87% 29.95 in 10.0 mi Calm Calm - N/A   Overcast
1:20 AM 35.6 °F - 32.0 °F 87% 29.96 in 10.0 mi Calm Calm - N/A   Overcast
1:40 AM 36.0 °F - 32.0 °F 86% 29.95 in 10.0 mi Calm Calm - N/A   Overcast
2:00 AM 34.5 °F - 31.8 °F 90% 29.96 in 10.0 mi Calm Calm - N/A   Mostly Cloudy
2:25 AM 33.8 °F - 31.6 °F 92% 29.96 in 10.0 mi Calm Calm - N/A   Mostly Cloudy
2:45 AM 32.7 °F - 31.8 °F 96% 29.96 in 7.0 mi Calm Calm - N/A   Mostly Cloudy
3:05 AM 33.6 °F - 32.0 °F 94% 29.96 in 10.0 mi Calm Calm - N/A   Overcast
3:25 AM 33.4 °F - 31.5 °F 92% 29.96 in 10.0 mi Calm Calm - N/A   Mostly Cloudy
3:50 AM 32.9 °F - 32.0 °F 96% 29.97 in 7.0 mi Calm Calm - N/A   Mostly Cloudy
4:10 AM 32.4 °F - 32.0 °F 99% 29.98 in 7.0 mi Calm Calm - N/A   Mostly Cloudy
4:30 AM 32.5 °F - 32.0 °F 98% 29.99 in 7.0 mi Calm Calm - N/A   Mostly Cloudy
4:50 AM 33.3 °F - 32.0 °F 95% 30.01 in 7.0 mi Calm Calm - N/A   Overcast
5:15 AM 33.4 °F - 32.0 °F 94% 30.02 in 7.0 mi Calm Calm - N/A   Overcast
5:35 AM 33.8 °F - 32.4 °F 94% 30.03 in 7.0 mi Calm Calm - N/A   Overcast
5:55 AM 33.8 °F - 32.4 °F 94% 30.04 in 7.0 mi Calm Calm - N/A   Mostly Cloudy
6:15 AM 32.5 °F - 31.8 °F 97% 30.06 in 7.0 mi Calm Calm - N/A   Scattered Clouds
6:40 AM 31.8 °F - 30.7 °F 96% 30.07 in 7.0 mi Calm Calm - N/A   Clear
7:00 AM 31.5 °F - 30.9 °F 98% 30.08 in 7.0 mi Calm Calm - N/A   Clear
7:20 AM 30.0 °F - 29.8 °F 99% 30.09 in 4.0 mi Calm Calm - N/A   Clear
7:40 AM 30.7 °F - 30.7 °F 100% 30.10 in 2.5 mi Calm Calm - N/A   Clear
8:05 AM 32.0 °F - 31.3 °F 97% 30.12 in 5.0 mi Calm Calm - N/A   Clear
8:25 AM 33.8 °F - 32.7 °F 96% 30.13 in 5.0 mi Calm Calm - N/A   Clear
8:45 AM 39.6 °F 34.0 °F 33.3 °F 78% 30.14 in 10.0 mi NNW 8.1 mph - N/A   Clear
9:10 AM 43.2 °F 37.4 °F 32.0 °F 65% 30.15 in 10.0 mi NNW 10.4 mph 19.6 mph N/A   Clear
9:30 AM 43.7 °F 37.7 °F 31.8 °F 63% 30.15 in 10.0 mi NW 11.5 mph - N/A   Scattered Clouds
9:50 AM 44.1 °F 40.1 °F 31.3 °F 61% 30.16 in 10.0 mi NW 6.9 mph - N/A   Clear
10:10 AM 45.0 °F 38.5 °F 31.5 °F 59% 30.17 in 10.0 mi NW 13.8 mph 17.3 mph N/A   Clear
10:55 AM 45.7 °F 39.1 °F 29.5 °F 53% 30.19 in 10.0 mi NW 15.0 mph 23.0 mph N/A   Clear
11:20 AM 46.4 °F 41.5 °F 29.5 °F 52% 30.20 in 10.0 mi NNW 10.4 mph 17.3 mph N/A   Scattered Clouds
11:40 AM 45.5 °F 39.6 °F 29.5 °F 54% 30.21 in 10.0 mi NNW 12.7 mph 17.3 mph N/A   Overcast
12:00 PM 44.8 °F 38.7 °F 28.4 °F 53% 30.21 in 10.0 mi NW 12.7 mph 20.7 mph N/A   Overcast
12:05 PM 44.1 °F 39.0 °F 28.0 °F 53% 30.21 in 10.0 mi NW 9.2 mph 20.7 mph N/A   Overcast
12:15 PM 43.9 °F 37.9 °F 28.2 °F 54% 30.22 in 10.0 mi West 11.5 mph - N/A   Mostly Cloudy
12:35 PM 47.1 °F - 28.4 °F 48% 30.20 in 10.0 mi WNW 13.8 mph 17.3 mph N/A   Mostly Cloudy
12:55 PM 45.5 °F 39.9 °F 27.0 °F 48% 30.20 in 10.0 mi WNW 11.5 mph 19.6 mph N/A   Scattered Clouds
1:15 PM 47.5 °F - 27.3 °F 46% 30.20 in 10.0 mi WNW 9.2 mph 16.1 mph N/A   Clear
1:35 PM 47.7 °F - 26.4 °F 44% 30.20 in 10.0 mi West 12.7 mph 19.6 mph N/A   Clear
1:55 PM 47.1 °F - 27.0 °F 46% 30.20 in 10.0 mi NW 9.2 mph 21.9 mph N/A   Clear
2:15 PM 47.1 °F - 26.6 °F 45% 30.20 in 10.0 mi NW 10.4 mph 20.7 mph N/A   Clear
2:35 PM 47.3 °F - 26.4 °F 44% 30.20 in 10.0 mi NW 10.4 mph 19.6 mph N/A   Clear
2:55 PM 47.7 °F - 27.1 °F 45% 30.20 in 10.0 mi NW 9.2 mph 18.4 mph N/A   Clear
3:15 PM 47.3 °F - 26.6 °F 45% 30.21 in 10.0 mi NW 12.7 mph 18.4 mph N/A   Clear
3:35 PM 47.1 °F - 27.1 °F 46% 30.22 in 10.0 mi NW 10.4 mph 17.3 mph N/A   Clear
3:55 PM 46.6 °F - 26.6 °F 46% 30.22 in 10.0 mi NW 9.2 mph 18.4 mph N/A   Clear
4:15 PM 46.4 °F 41.1 °F 26.6 °F 46% 30.22 in 10.0 mi NW 11.5 mph 16.1 mph N/A   Clear
4:35 PM 45.5 °F 39.2 °F 26.6 °F 48% 30.22 in 10.0 mi NW 13.8 mph 18.4 mph N/A   Clear
4:55 PM 45.0 °F 41.2 °F 26.8 °F 49% 30.24 in 10.0 mi NW 6.9 mph 18.4 mph N/A   Clear
5:15 PM 43.7 °F 38.1 °F 26.6 °F 51% 30.24 in 10.0 mi NNW 10.4 mph 16.1 mph N/A   Clear
5:35 PM 42.4 °F 39.6 °F 26.4 °F 53% 30.25 in 10.0 mi NNW 4.6 mph - N/A   Clear
5:55 PM 41.5 °F 38.6 °F 26.4 °F 55% 30.27 in 10.0 mi North 4.6 mph - N/A   Clear
6:15 PM 40.5 °F 35.8 °F 26.6 °F 58% 30.28 in 10.0 mi NNW 6.9 mph - N/A   Clear
6:35 PM 40.3 °F 35.5 °F 26.6 °F 58% 30.28 in 10.0 mi North 6.9 mph - N/A   Clear
6:55 PM 39.7 °F 36.5 °F 26.4 °F 59% 30.30 in 10.0 mi NNW 4.6 mph - N/A   Clear
7:15 PM 38.7 °F 35.2 °F 26.4 °F 61% 30.30 in 10.0 mi NNW 4.6 mph - N/A   Clear
7:55 PM 38.3 °F 33.9 °F 25.9 °F 61% 30.32 in 10.0 mi NNW 5.8 mph - N/A   Clear
8:10 PM 37.8 °F 35.3 °F 25.7 °F 62% 30.31 in 10.0 mi North 3.5 mph - N/A   Clear
8:35 PM 36.9 °F - 25.7 °F 64% 30.33 in 10.0 mi Calm Calm - N/A   Clear
9:00 PM 32.7 °F - 27.5 °F 81% 30.33 in 10.0 mi Calm Calm - N/A   Clear
9:20 PM 32.0 °F - 26.4 °F 80% 30.34 in 10.0 mi Calm Calm - N/A   Clear
9:40 PM 30.6 °F - 25.5 °F 82% 30.35 in 10.0 mi Calm Calm - N/A   Clear
10:00 PM 31.3 °F 27.9 °F 25.7 °F 80% 30.35 in 10.0 mi North 3.5 mph - N/A   Clear
10:40 PM 30.4 °F - 25.7 °F 83% 30.37 in 10.0 mi Calm Calm - N/A   Clear
11:00 PM 29.7 °F - 26.2 °F 87% 30.37 in 10.0 mi Calm Calm - N/A   Clear
11:20 PM 29.3 °F - 25.5 °F 86% 30.36 in 10.0 mi Calm Calm - N/A   Clear
11:40 PM 28.8 °F - 25.5 °F 88% 30.35 in 10.0 mi Calm Calm - N/A   Clear